This is the latest recevied weather packets stored in our database for station/object N1IJV-10. If no packets are shown the sender has not sent any weather packets the latest 10 day(s).
| Time | Temp. | Humidity | Pressure | Rain* | Wind** | Luminosity | Snow |
|---|---|---|---|---|---|---|---|
| 1778040239 | 10.56° C | 54% | 1010 hPa | 0 mm | - | 0 W/m² | - |
| 1778039934 | 10.56° C | 55% | 1010.1 hPa | 0 mm | - | 0 W/m² | - |
| 1778039632 | 10.56° C | 55% | 1010.1 hPa | 0 mm | - | 0 W/m² | - |
| 1778039329 | 10° C | 57% | 1010 hPa | 0 mm | - | 0 W/m² | - |
| 1778039026 | 10° C | 62% | 1009.7 hPa | 0 mm | - | 0 W/m² | - |
| 1778038723 | 9.44° C | 65% | 1009.8 hPa | 0 mm | - | 0 W/m² | - |
| 1778038420 | 9.44° C | 67% | 1009.9 hPa | 0 mm | - | 0 W/m² | - |
| 1778038117 | 9.44° C | 65% | 1009.9 hPa | 0 mm | - | 0 W/m² | - |
| 1778037814 | 9.44° C | 63% | 1009.5 hPa | 0 mm | - | 0 W/m² | - |
| 1778037511 | 9.44° C | 62% | 1009.5 hPa | 0 mm | - | 0 W/m² | - |
| 1778037208 | 9.44° C | 63% | 1009.3 hPa | 0 mm | - | 0 W/m² | - |
| 1778036906 | 9.44° C | 64% | 1009.3 hPa | 0 mm | - | 0 W/m² | - |
| 1778036603 | 9.44° C | 62% | 1009.4 hPa | 0 mm | - | 0 W/m² | - |
| 1778036300 | 9.44° C | 63% | 1009.3 hPa | 0 mm | - | 0 W/m² | - |
| 1778035996 | 10° C | 65% | 1009.3 hPa | 0 mm | - | 0 W/m² | - |
| 1778035694 | 10° C | 62% | 1009.3 hPa | 0 mm | - | 0 W/m² | - |
| 1778035390 | 10° C | 62% | 1009.3 hPa | 0 mm | - | 0 W/m² | - |
| 1778035086 | 10° C | 64% | 1009.2 hPa | 0 mm | - | 0 W/m² | - |
| 1778034784 | 10° C | 63% | 1009.3 hPa | 0 mm | - | 0 W/m² | - |
| 1778034480 | 10° C | 63% | 1009.7 hPa | 0 mm | - | 0 W/m² | - |
| 1778034178 | 10° C | 61% | 1009.4 hPa | 0 mm | - | 0 W/m² | - |
| 1778033876 | 10° C | 60% | 1009.2 hPa | 0 mm | - | 0 W/m² | - |
| 1778033573 | 10° C | 60% | 1009 hPa | 0 mm | - | 0 W/m² | - |
| 1778033269 | 10° C | 62% | 1009.1 hPa | 0 mm | - | 0 W/m² | - |
| 1778032967 | 10° C | 63% | 1009 hPa | 0 mm | - | 0 W/m² | - |
* Rain latest hour (hover to see other rain measurements)
** Current wind speed in m/s (hover to see current wind gust speed)